Wind_Speed
48 48 48 49 49 51 51 51 51 50 53 54 55 55 56 58 59 61 62 63 64 64 64 65 65 64 64 63 63 62 63 64 63 63 63 63 63 62
51 51 52 52 53 53 53 53 53 54 56 58 58 59 60 63 65 65 67 67 67 67 67 68 68 67 66 66 66 65 65 65 65 66 65 65 64 63
54 54 55 55 55 55 54 55 56 59 60 61 60 63 66 68 69 69 68 69 68 68 66 65 66 67 66 66 66 66 65 65 65 65 66 66 66 65
55 57 57 57 56 56 56 58 61 62 63 61 64 68 70 71 69 70 71 71 70 69 67 67 67 67 67 68 68 69 69 70 69 70 69 70 69 68
56 55 59 56 55 57 60 62 64 64 64 66 69 71 72 71 73 73 73 71 70 70 69 69 70 70 71 72 74 75 76 78 78 78 77 77 76 75
57 58 55 57 58 60 62 63 63 66 69 71 73 74 74 76 76 74 71 71 71 71 72 73 74 75 78 80 82 84 86 87 89 89 88 87 86 84
55 54 53 59 61 61 62 63 67 69 72 75 76 77 78 78 77 74 73 74 73 75 75 77 79 82 86 90 94 97 100 102 103 103 103 102 100 98
55 53 57 59 60 61 64 67 70 74 76 77 79 79 78 76 77 77 77 77 78 83 84 86 92 96 99 101 103 105 106 106 108 108 109 110 110 108
53 55 59 59 62 64 67 71 74 77 78 79 79 76 76 77 78 80 82 85 88 93 97 98 101 100 95 90 89 87 86 89 90 91 93 94 96 97
54 57 61 62 63 67 71 73 77 78 79 76 75 75 77 80 83 85 89 92 97 99 96 90 85 82 78 75 74 74 74 74 74 75 76 77 79 81
58 61 60 64 68 70 74 75 78 76 74 73 74 78 82 85 88 93 96 97 89 81 78 77 71 69 66 64 64 67 68 69 69 68 67 67 68 71
59 62 65 67 71 74 75 76 73 71 72 74 79 82 85 89 94 96 89 80 75 69 68 66 64 64 58 57 57 58 57 56 58 57 56 54 55 56
63 65 68 71 73 74 74 72 71 73 76 80 83 85 89 93 89 78 72 69 66 61 59 59 56 55 55 52 50 50 51 50 50 51 48 46 45 46
66 68 70 72 72 72 71 71 74 77 80 82 85 90 91 81 70 65 63 60 56 53 52 53 51 51 51 48 46 45 48 49 50 47 44 41 40 41
66 69 70 70 69 69 71 73 76 80 82 85 88 85 73 65 60 57 54 51 48 46 47 49 49 47 47 48 47 47 47 42 43 41 39 37 39 35
67 66 65 64 65 69 72 76 79 81 84 85 78 68 61 57 53 50 46 45 43 42 43 44 45 46 45 46 47 47 45 41 36 35 32 32 32 29
58 57 60 63 68 72 75 77 80 83 82 73 64 59 56 52 48 45 44 42 41 39 39 40 43 45 43 43 44 49 44 38 35 31 29 25 24 22
55 59 64 68 71 73 75 79 80 76 66 59 56 55 51 47 45 43 43 41 39 38 38 41 42 41 35 40 49 51 45 36 30 25 26 20 18 15
60 65 68 70 72 75 77 76 70 61 56 54 53 50 47 44 43 41 40 40 39 38 39 42 43 42 35 37 46 51 42 30 25 22 22 19 13 13
64 67 69 72 73 75 72 65 57 53 52 51 49 47 44 42 40 39 38 38 38 37 37 40 42 40 36 37 43 42 39 26 23 18 20 18 14 20
66 69 71 72 72 68 61 55 51 52 51 49 47 44 41 39 37 36 36 36 35 35 35 37 39 37 33 36 42 38 33 27 22 18 17 18 19 20
66 68 70 69 64 58 53 50 51 51 49 46 44 41 37 35 34 33 33 33 33 33 33 34 35 35 32 33 37 33 26 23 20 18 18 18 20 23
67 67 64 60 55 52 49 50 50 48 47 44 39 34 32 31 31 30 30 30 30 30 31 33 33 32 29 29 32 29 26 22 22 23 24 24 24 25
Wind_Direction
290 290 291 292 292 293 295 297 297 296 296 295 294 294 295 296 296 296 295 293 292 291 291 290 289 287 284 282 281 279 278 277 275 273 271 270 270 270
289 290 290 290 292 293 295 295 295 296 294 294 295 295 296 297 297 297 297 296 295 293 292 291 288 287 286 285 283 282 280 278 276 275 273 272 271 270
287 288 289 290 292 293 293 293 294 294 293 294 296 296 297 298 299 299 297 296 295 293 292 290 289 288 287 285 284 282 281 279 278 276 275 273 271 270
287 288 289 290 290 291 292 293 293 292 292 294 295 296 299 300 298 298 298 297 296 294 292 290 288 287 286 285 284 283 282 280 278 277 276 274 272 270
282 285 287 285 286 289 290 291 291 292 294 294 296 298 298 298 299 299 298 297 296 294 292 291 290 288 287 285 283 283 282 281 280 278 276 274 272 271
282 282 283 283 285 287 288 291 293 294 295 298 299 300 300 301 300 299 297 296 295 295 294 293 291 290 288 286 285 283 282 280 278 277 275 273 271 270
277 279 281 285 284 288 291 292 293 296 298 299 301 301 301 301 300 300 298 297 297 294 292 291 291 290 289 288 286 284 283 281 279 277 275 273 271 269
281 280 283 283 287 290 292 294 297 299 301 301 301 302 302 302 301 300 299 297 296 297 294 293 292 291 290 289 288 286 284 283 281 278 276 275 273 271
278 282 284 287 290 292 294 297 300 301 300 302 303 304 304 302 303 303 302 301 300 298 296 296 294 293 292 290 288 287 285 283 281 279 277 276 274 271
283 284 287 290 292 295 298 300 300 300 302 304 304 304 304 305 304 303 302 301 302 301 299 297 295 294 293 293 293 292 290 288 286 283 280 277 275 272
284 286 290 294 296 298 300 299 300 302 304 305 305 305 305 306 306 305 306 304 302 300 298 297 296 296 296 296 296 295 294 294 292 290 286 282 276 271
287 292 295 298 299 299 299 302 304 305 305 305 306 307 308 308 308 307 305 302 300 299 298 299 300 300 298 298 299 297 297 295 293 295 295 290 283 277
292 295 297 298 298 301 303 304 304 305 306 307 308 308 309 309 308 304 302 301 300 301 301 300 302 302 304 306 304 301 299 296 295 293 299 300 291 284
294 297 297 301 303 303 303 304 305 306 307 307 308 309 309 307 304 302 301 301 302 303 302 303 307 309 310 311 309 303 302 300 297 294 293 300 295 289
296 300 303 304 303 303 304 305 305 305 306 307 308 308 307 305 305 303 301 300 302 302 304 309 312 314 313 314 312 310 307 308 301 296 293 297 297 292
302 303 303 303 304 305 304 304 305 306 308 309 309 307 306 307 306 303 300 300 300 300 305 311 314 316 315 315 315 316 315 316 308 299 294 298 296 295
302 303 304 305 305 304 305 306 308 309 309 308 306 306 307 306 304 301 299 299 299 300 305 310 316 318 319 321 320 319 318 317 309 300 297 300 291 290
304 304 304 304 304 304 305 308 308 308 306 305 305 306 306 305 303 301 300 300 299 300 304 310 315 317 317 322 322 321 318 314 307 298 299 295 281 280
303 303 302 302 303 305 307 308 307 304 304 304 305 304 303 303 301 301 300 300 300 299 302 308 313 317 313 321 323 320 321 313 303 297 298 287 262 216
303 302 303 304 305 306 308 306 303 302 303 304 304 303 302 301 301 301 301 302 302 301 302 305 311 315 315 321 329 325 321 319 304 292 294 282 253 222
303 303 303 304 305 306 304 302 302 303 304 304 303 302 301 301 302 303 303 304 304 304 304 307 310 313 313 322 330 330 323 318 306 294 290 279 254 242
303 302 302 304 304 303 302 302 304 304 304 304 303 301 300 301 303 304 304 305 306 305 305 308 310 312 310 319 329 331 328 326 320 306 292 284 266 247
301 301 303 303 302 302 302 303 304 304 304 304 301 299 299 302 305 305 307 309 309 309 309 310 311 311 310 317 329 331 329 326 325 315 302 290 276 262
Height
5751 5750 5748 5747 5745 5743 5740 5738 5735 5731 5726 5723 5718 5717 5713 5708 5705 5700 5695 5691 5687 5683 5679 5674 5671 5669 5666 5664 5663 5661 5660 5659 5658 5657 5657 5658 5658 5659
5740 5739 5737 5735 5734 5731 5729 5726 5723 5719 5715 5708 5705 5702 5698 5693 5689 5685 5680 5675 5670 5665 5662 5656 5652 5650 5647 5644 5642 5641 5640 5640 5639 5639 5638 5639 5640 5640
5729 5727 5725 5724 5721 5719 5716 5713 5709 5705 5701 5696 5692 5687 5682 5677 5672 5668 5662 5657 5653 5648 5644 5640 5634 5630 5628 5625 5622 5621 5620 5620 5619 5619 5618 5619 5619 5621
5717 5715 5713 5711 5708 5705 5703 5699 5695 5691 5687 5683 5678 5673 5667 5661 5656 5651 5644 5638 5633 5628 5623 5620 5616 5613 5609 5605 5603 5600 5598 5597 5598 5597 5598 5598 5599 5600
5704 5703 5700 5697 5694 5691 5687 5684 5680 5675 5671 5667 5662 5656 5651 5645 5639 5632 5626 5620 5614 5608 5603 5599 5595 5592 5587 5584 5581 5578 5576 5573 5572 5572 5573 5574 5575 5576
5691 5688 5686 5684 5680 5676 5672 5669 5665 5660 5655 5650 5644 5638 5632 5625 5619 5613 5608 5601 5595 5588 5583 5578 5574 5569 5564 5560 5557 5552 5548 5545 5543 5542 5544 5545 5547 5549
5676 5674 5671 5669 5665 5661 5658 5653 5648 5644 5638 5632 5625 5618 5611 5604 5598 5592 5586 5580 5574 5567 5564 5560 5553 5548 5540 5533 5525 5520 5515 5511 5509 5508 5508 5509 5512 5516
5663 5660 5658 5655 5651 5647 5643 5637 5632 5626 5620 5613 5607 5598 5590 5582 5576 5570 5564 5559 5554 5542 5540 5537 5526 5521 5512 5501 5492 5484 5479 5474 5470 5469 5468 5468 5469 5472
5649 5646 5644 5641 5637 5632 5627 5620 5614 5608 5602 5594 5587 5578 5571 5563 5556 5550 5543 5536 5527 5517 5509 5508 5494 5489 5478 5469 5460 5453 5448 5443 5440 5437 5434 5431 5429 5431
5635 5632 5629 5625 5621 5616 5610 5603 5597 5590 5584 5575 5567 5560 5552 5543 5535 5528 5520 5513 5502 5490 5476 5474 5467 5461 5454 5444 5433 5426 5420 5416 5414 5411 5406 5403 5401 5400
5622 5619 5614 5609 5604 5599 5593 5587 5581 5572 5565 5558 5550 5541 5532 5523 5513 5504 5494 5486 5479 5468 5453 5448 5445 5439 5434 5426 5417 5406 5398 5392 5387 5382 5379 5377 5374 5371
5609 5603 5598 5591 5587 5582 5576 5570 5563 5555 5548 5540 5532 5521 5511 5500 5489 5479 5469 5461 5454 5450 5437 5431 5426 5416 5418 5409 5401 5388 5382 5374 5367 5362 5357 5353 5350 5347
5591 5587 5582 5576 5571 5564 5557 5552 5546 5539 5531 5522 5512 5501 5491 5480 5470 5458 5449 5441 5436 5431 5421 5414 5411 5405 5394 5392 5386 5374 5365 5361 5355 5349 5343 5338 5334 5330
5576 5571 5565 5559 5553 5547 5541 5535 5529 5521 5513 5504 5494 5483 5473 5462 5451 5442 5434 5427 5420 5415 5409 5401 5398 5389 5383 5378 5371 5364 5355 5347 5339 5336 5332 5328 5323 5319
5561 5554 5548 5543 5537 5532 5526 5518 5511 5503 5494 5485 5476 5465 5453 5445 5436 5427 5420 5415 5411 5405 5397 5390 5384 5379 5371 5364 5358 5351 5341 5338 5327 5323 5320 5316 5311 5310
5543 5538 5533 5529 5523 5517 5510 5502 5493 5484 5476 5466 5456 5446 5438 5429 5422 5414 5410 5405 5401 5396 5389 5381 5375 5368 5362 5353 5345 5339 5331 5324 5319 5312 5310 5307 5303 5301
5529 5525 5520 5515 5508 5501 5493 5485 5476 5465 5455 5446 5438 5431 5424 5417 5410 5404 5399 5395 5390 5386 5381 5374 5367 5359 5351 5343 5337 5327 5322 5317 5309 5304 5302 5300 5297 5296
5517 5512 5506 5500 5493 5485 5476 5467 5456 5446 5437 5430 5424 5417 5410 5404 5399 5393 5388 5384 5380 5375 5371 5365 5360 5354 5347 5338 5325 5318 5312 5307 5302 5298 5295 5294 5293 5292
5505 5499 5492 5484 5475 5467 5458 5448 5439 5431 5424 5418 5411 5405 5399 5394 5388 5383 5378 5374 5370 5366 5361 5355 5350 5344 5339 5334 5323 5307 5303 5299 5294 5291 5289 5289 5289 5289
5490 5482 5474 5466 5458 5449 5440 5432 5425 5418 5412 5406 5399 5393 5388 5383 5378 5373 5369 5364 5360 5356 5353 5347 5341 5336 5330 5325 5318 5306 5294 5293 5288 5286 5284 5284 5285 5286
5473 5465 5457 5449 5441 5432 5425 5418 5412 5406 5400 5394 5388 5382 5377 5372 5368 5364 5360 5355 5351 5347 5344 5339 5333 5328 5323 5317 5310 5301 5292 5287 5283 5281 5280 5279 5280 5281
5456 5448 5441 5433 5425 5418 5412 5405 5400 5394 5388 5382 5377 5371 5367 5363 5360 5356 5352 5348 5344 5339 5335 5331 5326 5320 5316 5311 5305 5297 5290 5284 5280 5278 5276 5275 5274 5275
5441 5433 5424 5417 5411 5405 5399 5394 5388 5382 5376 5371 5366 5362 5358 5355 5352 5348 5345 5340 5336 5332 5328 5324 5319 5313 5309 5306 5300 5294 5288 5283 5279 5274 5271 5268 5267 5267